When you browse on this site, cookies collect data to enhance your experience and personalize the content and advertising you see.
Visit our Privacy Policy to learn more. By continuing to use the site, you agree to this use of cookies and data.
  • In Austria
  • List of Countries
  • For 7 days
  • Water Temperature
  • Weather Map
  • News
  • Weather Widgets
  • user-avatar
    Login

    Hourly Weather Munich

    Today, 31 May, Sunday

    Time Temperature Precipitation Wind Pressure Humidity
    00:00 +7°C° 0 mm 1 mps 718 mmHg 84%
    01:00 +7°C° 0 mm 1 mps 718 mmHg 87%
    02:00 +7°C° 0 mm 1 mps 718 mmHg 88%
    03:00 +6°C° 0 mm 1 mps 718 mmHg 89%
    04:00 +6°C° 0 mm 1 mps 718 mmHg 90%
    05:00 +7°C° 0 mm 1 mps 717 mmHg 86%
    06:00 +8°C° 0 mm 0 mps 717 mmHg 82%
    07:00 +11°C° 0 mm 1 mps 717 mmHg 80%
    08:00 +12°C° 0 mm 1 mps 717 mmHg 72%
    09:00 +14°C° 0 mm 2 mps 717 mmHg 64%
    10:00 +15°C° 0 mm 2 mps 717 mmHg 57%
    11:00 +16°C° 0 mm 3 mps 717 mmHg 55%
    12:00 +16°C° 0 mm 3 mps 718 mmHg 53%
    13:00 +17°C° 0 mm 2 mps 718 mmHg 51%
    14:00 +16°C° 0 mm 2 mps 718 mmHg 53%
    15:00 +16°C° 0 mm 2 mps 718 mmHg 54%
    16:00 +16°C° 0 mm 2 mps 718 mmHg 56%
    17:00 +15°C° 0 mm 2 mps 718 mmHg 62%
    18:00 +13°C° 0 mm 3 mps 718 mmHg 69%
    19:00 +12°C° 0 mm 3 mps 719 mmHg 75%
    20:00 +11°C° 0 mm 3 mps 719 mmHg 80%
    21:00 +9°C° 0 mm 2 mps 719 mmHg 85%
    22:00 +8°C° 0 mm 2 mps 719 mmHg 90%
    23:00 +8°C° 0 mm 2 mps 719 mmHg 89%

    Tomorrow, 1 June, Monday

    Time Temperature Precipitation Wind Pressure Humidity
    00:00 +8°C° 0 mm 2 mps 719 mmHg 88%
    01:00 +8°C° 0 mm 2 mps 719 mmHg 87%
    02:00 +8°C° 0 mm 2 mps 719 mmHg 89%
    03:00 +7°C° 0 mm 2 mps 718 mmHg 91%
    04:00 +7°C° 0 mm 2 mps 718 mmHg 93%
    05:00 +8°C° 0 mm 2 mps 718 mmHg 89%
    06:00 +10°C° 0 mm 2 mps 718 mmHg 85%
    07:00 +12°C° 0 mm 2 mps 718 mmHg 81%
    08:00 +13°C° 0 mm 3 mps 718 mmHg 76%
    09:00 +16°C° 0 mm 3 mps 718 mmHg 71%
    10:00 +18°C° 0 mm 4 mps 719 mmHg 66%
    11:00 +19°C° 0 mm 4 mps 718 mmHg 63%
    12:00 +19°C° 0 mm 4 mps 718 mmHg 60%
    13:00 +20°C° 0 mm 4 mps 718 mmHg 56%
    14:00 +21°C° 0 mm 4 mps 718 mmHg 56%
    15:00 +21°C° 0 mm 4 mps 718 mmHg 56%
    16:00 +21°C° 0 mm 4 mps 718 mmHg 56%
    17:00 +20°C° 0 mm 4 mps 718 mmHg 62%
    18:00 +19°C° 0 mm 3 mps 717 mmHg 68%
    19:00 +17°C° 0 mm 2 mps 717 mmHg 74%
    20:00 +16°C° 0 mm 2 mps 718 mmHg 79%
    21:00 +14°C° 0 mm 2 mps 718 mmHg 83%
    22:00 +12°C° 0 mm 2 mps 718 mmHg 88%
    23:00 +12°C° 0 mm 2 mps 718 mmHg 89%

    Day after tomorrow, 2 June, Tuesday

    Time Temperature Precipitation Wind Pressure Humidity
    00:00 +10°C° 0 mm 2 mps 718 mmHg 91%
    01:00 +10°C° 0 mm 2 mps 718 mmHg 93%
    02:00 +9°C° 0 mm 2 mps 718 mmHg 93%
    03:00 +9°C° 0 mm 2 mps 717 mmHg 94%
    04:00 +8°C° 0 mm 2 mps 717 mmHg 95%
    05:00 +10°C° 0 mm 2 mps 717 mmHg 90%
    06:00 +12°C° 0 mm 2 mps 717 mmHg 86%
    07:00 +13°C° 0 mm 2 mps 717 mmHg 81%
    08:00 +14°C° 0 mm 3 mps 717 mmHg 74%
    09:00 +16°C° 0 mm 3 mps 717 mmHg 67%
    10:00 +18°C° 0 mm 3 mps 717 mmHg 59%
    11:00 +19°C° 0 mm 3 mps 717 mmHg 56%
    12:00 +20°C° 0 mm 3 mps 716 mmHg 52%
    13:00 +21°C° 0 mm 3 mps 716 mmHg 48%
    14:00 +21°C° 0 mm 3 mps 716 mmHg 49%
    15:00 +21°C° 0 mm 3 mps 715 mmHg 50%
    16:00 +21°C° 0 mm 3 mps 715 mmHg 51%
    17:00 +20°C° 0 mm 3 mps 715 mmHg 57%
    18:00 +19°C° 0 mm 2 mps 714 mmHg 63%
    19:00 +19°C° 0 mm 1 mps 714 mmHg 69%
    20:00 +16°C° 0 mm 1 mps 714 mmHg 72%
    21:00 +14°C° 0 mm 1 mps 714 mmHg 76%
    22:00 +13°C° 0 mm 1 mps 714 mmHg 80%
    23:00 +12°C° 0 mm 1 mps 714 mmHg 82%

    3 June, Wednesday

    Time Temperature Precipitation Wind Pressure Humidity
    00:00 +11°C° 0 mm 1 mps 714 mmHg 85%
    01:00 +10°C° 0 mm 2 mps 713 mmHg 87%
    02:00 +10°C° 0 mm 1 mps 713 mmHg 88%
    03:00 +10°C° 0 mm 1 mps 713 mmHg 89%
    04:00 +10°C° 0 mm 1 mps 712 mmHg 90%
    05:00 +10°C° 0 mm 2 mps 712 mmHg 85%
    06:00 +13°C° 0 mm 2 mps 712 mmHg 80%
    07:00 +14°C° 0 mm 2 mps 711 mmHg 74%
    08:00 +16°C° 0 mm 2 mps 711 mmHg 68%
    09:00 +18°C° 0 mm 3 mps 711 mmHg 61%
    10:00 +20°C° 0 mm 3 mps 711 mmHg 55%
    11:00 +21°C° 0 mm 3 mps 711 mmHg 52%
    12:00 +21°C° 0 mm 3 mps 710 mmHg 50%
    13:00 +22°C° 0 mm 3 mps 710 mmHg 47%
    14:00 +22°C° 0 mm 3 mps 709 mmHg 48%
    15:00 +22°C° 0 mm 3 mps 709 mmHg 49%
    16:00 +22°C° 0 mm 3 mps 708 mmHg 50%
    17:00 +21°C° 0 mm 3 mps 708 mmHg 57%
    18:00 +20°C° 0 mm 2 mps 708 mmHg 64%
    19:00 +18°C° 0 mm 2 mps 708 mmHg 71%
    20:00 +17°C° 0 mm 2 mps 708 mmHg 74%
    21:00 +15°C° 0 mm 2 mps 708 mmHg 78%
    22:00 +13°C° 0 mm 1 mps 708 mmHg 81%
    23:00 +13°C° 0 mm 2 mps 707 mmHg 82%

    4 June, Thursday

    Time Temperature Precipitation Wind Pressure Humidity
    00:00 +13°C° 0 mm 2 mps 707 mmHg 83%
    01:00 +13°C° 0 mm 2 mps 707 mmHg 84%
    02:00 +13°C° 0 mm 2 mps 707 mmHg 86%
    03:00 +13°C° 0 mm 2 mps 707 mmHg 87%
    04:00 +13°C° 0 mm 2 mps 707 mmHg 89%
    05:00 +14°C° 0.2 mm 2 mps 706 mmHg 89%
    06:00 +14°C° 0.2 mm 2 mps 706 mmHg 89%
    07:00 +15°C° 0.2 mm 2 mps 706 mmHg 89%
    08:00 +16°C° 0.4 mm 2 mps 706 mmHg 88%
    09:00 +16°C° 0.4 mm 2 mps 706 mmHg 87%
    10:00 +17°C° 0.4 mm 2 mps 706 mmHg 86%
    11:00 +17°C° 0.4 mm 3 mps 706 mmHg 84%
    12:00 +18°C° 0.4 mm 4 mps 706 mmHg 81%
    13:00 +18°C° 0.4 mm 4 mps 706 mmHg 79%
    14:00 +16°C° 0.4 mm 5 mps 706 mmHg 82%
    15:00 +15°C° 0.4 mm 5 mps 706 mmHg 86%
    16:00 +14°C° 0.4 mm 5 mps 706 mmHg 89%
    17:00 +14°C° 1.2 mm 5 mps 706 mmHg 91%
    18:00 +13°C° 1.2 mm 4 mps 706 mmHg 93%
    19:00 +13°C° 1.2 mm 4 mps 706 mmHg 94%
    20:00 +12°C° 0.8 mm 4 mps 707 mmHg 94%
    21:00 +12°C° 0.8 mm 4 mps 707 mmHg 94%
    22:00 +12°C° 0.8 mm 4 mps 707 mmHg 93%
    23:00 +12°C° 0.2 mm 3 mps 707 mmHg 93%

    5 June, Friday

    Time Temperature Precipitation Wind Pressure Humidity
    00:00 +12°C° 0.2 mm 3 mps 707 mmHg 94%
    01:00 +13°C° 0.2 mm 2 mps 707 mmHg 94%
    02:00 +13°C° 0.1 mm 2 mps 707 mmHg 93%
    03:00 +13°C° 0.1 mm 2 mps 707 mmHg 93%
    04:00 +13°C° 0.1 mm 2 mps 707 mmHg 92%
    05:00 +13°C° 0.1 mm 2 mps 707 mmHg 92%
    06:00 +14°C° 0.1 mm 2 mps 708 mmHg 92%
    07:00 +14°C° 0.1 mm 2 mps 708 mmHg 91%
    08:00 +15°C° 0.2 mm 2 mps 708 mmHg 88%
    09:00 +16°C° 0.2 mm 3 mps 708 mmHg 85%
    10:00 +17°C° 0.2 mm 3 mps 708 mmHg 81%
    11:00 +19°C° 0.3 mm 3 mps 708 mmHg 74%
    12:00 +21°C° 0.3 mm 3 mps 708 mmHg 67%
    13:00 +22°C° 0.3 mm 3 mps 708 mmHg 59%
    14:00 +22°C° 0.2 mm 3 mps 707 mmHg 62%
    15:00 +22°C° 0.2 mm 3 mps 707 mmHg 64%
    16:00 +22°C° 0.2 mm 3 mps 707 mmHg 66%
    17:00 +21°C° 0.6 mm 2 mps 707 mmHg 72%
    18:00 +20°C° 0.6 mm 2 mps 706 mmHg 78%
    19:00 +20°C° 0.6 mm 1 mps 706 mmHg 84%
    20:00 +18°C° 2.3 mm 2 mps 706 mmHg 88%
    21:00 +17°C° 2.3 mm 3 mps 707 mmHg 91%
    22:00 +16°C° 2.3 mm 3 mps 707 mmHg 94%
    23:00 +14°C° 0.5 mm 3 mps 707 mmHg 94%
    Show more